Tracking 26951 objects as of 4-Feb-2023
HD Live streaming from Space Station
objects crossing your sky now

NOAA 16 DEB

Track NOAA 16 DEB now!
10-day predictions


NORAD ID: 41148
Int'l Code: 2000-055CF
Perigee: 660.4 km
Apogee: 761.9 km
Inclination: 98.9 °
Period: 98.9 minutes
Semi major axis: 7082 km
RCS: Unknown
Launch date: September 21, 2000
Source: United States (US)
Launch site: AIR FORCE WESTERN TEST RANGE (AFWTR)

Note: This is SATELLITE DEBRIS
Your satellite tracking list
Your tracking list is empty




NASA's NSSDC Master Catalog

Two Line Element Set (TLE):
1 41148U 00055CF  23034.02726598  .00022879  00000-0  49473-2 0  9996
2 41148  98.8596 238.4995 0071639 245.1264 114.2473 14.56655438377540
Source of the keplerian elements: AFSPC